Terminal Aerodrome Forecast
Issued by NWS

Home | Current Version | Previous Version | Text Only | Print | Product List | Glossary On
Versions: 1 2 3 4 5 6 7 8 9 10 11 12 13 14 15 16 17
000
FTUS41 KBTV 310600 AAA
TAFMSS
TAF AMD
KMSS 310656Z 3107/0106 00000KT 6SM BR SCT100
      TEMPO 3107/3109 2SM BR
     FM310900 21003KT P6SM SCT040 BKN080
     FM311100 22009KT 6SM -SHRA BKN035 OVC060
     FM312000 23007KT P6SM SCT050=

USA.gov is the U.S. government's official web portal to all federal, state and local government web resources and services.